Time,TemperatureF,DewpointF,PressureIn,WindDirection,WindDirectionDegrees,WindSpeedMPH,WindSpeedGustMPH,Humidity,HourlyPrecipIn,Conditions,Clouds,dailyrainin,SoftwareType,DateUTC
2013-03-04 00:02:00,78.0,-99.9,30.01,SW,220,5.0,6.0,-999,-99.99,,,-99.99,,2013-03-04 04:02:00,
2013-03-04 00:11:00,78.0,-99.9,30.01,SW,226,5.0,6.0,-999,-99.99,,,-99.99,,2013-03-04 04:11:00,
2013-03-04 00:22:00,78.0,-99.9,30.01,SW,228,4.0,4.0,-999,-99.99,,,-99.99,,2013-03-04 04:22:00,
2013-03-04 00:32:00,78.0,-99.9,30.01,WSW,251,4.0,4.0,-999,-99.99,,,-99.99,,2013-03-04 04:32:00,
2013-03-04 00:42:00,78.0,-99.9,30.00,SW,216,2.0,2.0,-999,-99.99,,,-99.99,,2013-03-04 04:42:00,
2013-03-04 00:52:00,77.0,-99.9,30.00,SW,233,5.0,6.0,-999,-99.99,,,-99.99,,2013-03-04 04:52:00,
2013-03-04 01:01:00,77.0,-99.9,30.00,SW,222,5.0,6.0,-999,-99.99,,,-99.99,,2013-03-04 05:01:00,
2013-03-04 01:11:00,77.0,-99.9,29.99,SW,222,4.0,6.0,-999,-99.99,,,-99.99,,2013-03-04 05:11:00,
2013-03-04 01:22:00,78.0,-99.9,29.99,SW,221,2.0,4.0,-999,-99.99,,,-99.99,,2013-03-04 05:22:00,
2013-03-04 01:32:00,78.0,-99.9,29.99,SW,223,3.0,3.0,-999,-99.99,,,-99.99,,2013-03-04 05:32:00,
2013-03-04 01:43:00,78.0,-99.9,29.98,SW,236,3.0,4.0,-999,-99.99,,,-99.99,,2013-03-04 05:43:00,
2013-03-04 01:52:00,77.0,-99.9,29.98,SW,225,4.0,5.0,-999,-99.99,,,-99.99,,2013-03-04 05:52:00,
2013-03-04 02:02:00,77.0,-99.9,29.98,SSW,205,4.0,5.0,-999,-99.99,,,-99.99,,2013-03-04 06:02:00,
2013-03-04 02:11:00,77.0,-99.9,29.98,SW,219,5.0,5.0,-999,-99.99,,,-99.99,,2013-03-04 06:11:00,
2013-03-04 02:22:00,77.0,-99.9,29.98,SW,225,5.0,6.0,-999,-99.99,,,-99.99,,2013-03-04 06:22:00,
2013-03-04 02:32:00,77.0,-99.9,29.97,SW,236,5.0,6.0,-999,-99.99,,,-99.99,,2013-03-04 06:32:00,
2013-03-04 02:42:00,77.0,-99.9,29.97,SW,233,5.0,6.0,-999,-99.99,,,-99.99,,2013-03-04 06:42:00,
2013-03-04 02:52:00,77.0,-99.9,29.97,SW,224,4.0,5.0,-999,-99.99,,,-99.99,,2013-03-04 06:52:00,
2013-03-04 03:02:00,76.0,-99.9,29.97,SSW,209,5.0,6.0,-999,-99.99,,,-99.99,,2013-03-04 07:02:00,
2013-03-04 03:11:00,76.0,-99.9,29.96,SSW,211,3.0,5.0,-999,-99.99,,,-99.99,,2013-03-04 07:11:00,
2013-03-04 03:22:00,76.0,-99.9,29.96,SSW,195,2.0,4.0,-999,-99.99,,,-99.99,,2013-03-04 07:22:00,
2013-03-04 03:32:00,76.0,-99.9,29.96,SSW,213,2.0,3.0,-999,-99.99,,,-99.99,,2013-03-04 07:32:00,
2013-03-04 03:42:00,76.0,-99.9,29.96,SSW,212,2.0,3.0,-999,-99.99,,,-99.99,,2013-03-04 07:42:00,
2013-03-04 03:52:00,76.0,-99.9,29.96,SSW,209,2.0,3.0,-999,-99.99,,,-99.99,,2013-03-04 07:52:00,
2013-03-04 04:02:00,76.0,-99.9,29.96,SSW,194,2.0,3.0,-999,-99.99,,,-99.99,,2013-03-04 08:02:00,
2013-03-04 04:12:00,76.0,-99.9,29.96,SE,145,1.0,2.0,-999,-99.99,,,-99.99,,2013-03-04 08:12:00,
2013-03-04 04:22:00,77.0,-99.9,29.96,SSE,166,3.0,4.0,-999,-99.99,,,-99.99,,2013-03-04 08:22:00,
2013-03-04 04:32:00,77.0,-99.9,29.96,South,177,2.0,3.0,-999,-99.99,,,-99.99,,2013-03-04 08:32:00,
2013-03-04 04:42:00,77.0,-99.9,29.96,SSW,205,2.0,3.0,-999,-99.99,,,-99.99,,2013-03-04 08:42:00,
2013-03-04 04:52:00,76.0,-99.9,29.96,SW,228,4.0,5.0,-999,-99.99,,,-99.99,,2013-03-04 08:52:00,
2013-03-04 05:02:00,76.0,-99.9,29.96,SW,219,2.0,3.0,-999,-99.99,,,-99.99,,2013-03-04 09:02:00,
2013-03-04 05:11:00,76.0,-99.9,29.96,SSW,204,2.0,2.0,-999,-99.99,,,-99.99,,2013-03-04 09:11:00,
2013-03-04 05:22:00,76.0,-99.9,29.96,WSW,253,3.0,3.0,-999,-99.99,,,-99.99,,2013-03-04 09:22:00,
2013-03-04 05:32:00,76.0,-99.9,29.97,WSW,247,3.0,4.0,-999,-99.99,,,-99.99,,2013-03-04 09:32:00,
2013-03-04 05:42:00,76.0,-99.9,29.97,WSW,252,4.0,5.0,-999,-99.99,,,-99.99,,2013-03-04 09:42:00,
2013-03-04 05:52:00,76.0,-99.9,29.97,SW,233,4.0,5.0,-999,-99.99,,,-99.99,,2013-03-04 09:52:00,
2013-03-04 06:01:00,75.0,-99.9,29.98,SW,221,4.0,5.0,-999,-99.99,,,-99.99,,2013-03-04 10:01:00,
2013-03-04 06:12:00,75.0,-99.9,29.98,SW,228,6.0,7.0,-999,-99.99,,,-99.99,,2013-03-04 10:12:00,
2013-03-04 06:22:00,74.0,-99.9,29.99,WSW,241,5.0,6.0,-999,-99.99,,,-99.99,,2013-03-04 10:22:00,
2013-03-04 06:32:00,74.0,-99.9,29.99,WSW,237,4.0,5.0,-999,-99.99,,,-99.99,,2013-03-04 10:32:00,
2013-03-04 06:42:00,74.0,-99.9,30.00,SW,220,4.0,4.0,-999,-99.99,,,-99.99,,2013-03-04 10:42:00,
2013-03-04 06:52:00,75.0,-99.9,30.01,WSW,256,3.0,4.0,-999,-99.99,,,-99.99,,2013-03-04 10:52:00,
2013-03-04 07:02:00,75.0,-99.9,30.01,SW,220,2.0,4.0,-999,-99.99,,,-99.99,,2013-03-04 11:02:00,
2013-03-04 07:11:00,75.0,-99.9,30.01,SW,223,2.0,4.0,-999,-99.99,,,-99.99,,2013-03-04 11:11:00,
2013-03-04 07:22:00,75.0,-99.9,30.02,WSW,249,2.0,3.0,-999,-99.99,,,-99.99,,2013-03-04 11:22:00,
2013-03-04 07:32:00,75.0,-99.9,30.03,West,263,4.0,5.0,-999,-99.99,,,-99.99,,2013-03-04 11:32:00,
2013-03-04 07:42:00,75.0,-99.9,30.03,West,264,4.0,5.0,-999,-99.99,,,-99.99,,2013-03-04 11:42:00,
2013-03-04 07:52:00,75.0,-99.9,30.02,SW,233,3.0,4.0,-999,-99.99,,,-99.99,,2013-03-04 11:52:00,
2013-03-04 08:02:00,75.0,-99.9,30.03,SW,235,4.0,4.0,-999,-99.99,,,-99.99,,2013-03-04 12:02:00,
2013-03-04 08:12:00,75.0,-99.9,30.03,SW,227,5.0,6.0,-999,-99.99,,,-99.99,,2013-03-04 12:12:00,
2013-03-04 08:22:00,76.0,-99.9,30.03,SW,224,5.0,6.0,-999,-99.99,,,-99.99,,2013-03-04 12:22:00,
2013-03-04 08:32:00,76.0,-99.9,30.03,SSW,207,4.0,6.0,-999,-99.99,,,-99.99,,2013-03-04 12:32:00,
2013-03-04 08:43:00,76.0,-99.9,30.04,SW,226,3.0,5.0,-999,-99.99,,,-99.99,,2013-03-04 12:43:00,
2013-03-04 08:53:00,76.0,-99.9,30.04,WSW,244,3.0,4.0,-999,-99.99,,,-99.99,,2013-03-04 12:53:00,
2013-03-04 09:02:00,77.0,-99.9,30.04,WSW,240,3.0,4.0,-999,-99.99,,,-99.99,,2013-03-04 13:02:00,
2013-03-04 09:11:00,77.0,-99.9,30.05,West,263,5.0,8.0,-999,-99.99,,,-99.99,,2013-03-04 13:11:00,
2013-03-04 09:22:00,77.0,-99.9,30.06,West,275,6.0,7.0,-999,-99.99,,,-99.99,,2013-03-04 13:22:00,
2013-03-04 09:32:00,78.0,-99.9,30.06,West,280,6.0,8.0,-999,-99.99,,,-99.99,,2013-03-04 13:32:00,
2013-03-04 09:42:00,78.0,-99.9,30.06,WNW,294,4.0,7.0,-999,-99.99,,,-99.99,,2013-03-04 13:42:00,
2013-03-04 09:52:00,79.0,-99.9,30.06,WNW,294,4.0,5.0,-999,-99.99,,,-99.99,,2013-03-04 13:52:00,
2013-03-04 10:01:00,80.0,-99.9,30.06,NW,305,4.0,6.0,-999,-99.99,,,-99.99,,2013-03-04 14:01:00,
2013-03-04 10:12:00,80.0,-99.9,30.06,NW,309,4.0,6.0,-999,-99.99,,,-99.99,,2013-03-04 14:12:00,
2013-03-04 10:22:00,80.0,-99.9,30.06,NW,311,5.0,7.0,-999,-99.99,,,-99.99,,2013-03-04 14:22:00,
2013-03-04 10:32:00,80.0,-99.9,30.06,NW,309,5.0,7.0,-999,-99.99,,,-99.99,,2013-03-04 14:32:00,
2013-03-04 10:42:00,80.0,-99.9,30.06,WNW,298,6.0,8.0,-999,-99.99,,,-99.99,,2013-03-04 14:42:00,
2013-03-04 10:52:00,80.0,-99.9,30.06,WNW,303,5.0,7.0,-999,-99.99,,,-99.99,,2013-03-04 14:52:00,
2013-03-04 11:02:00,80.0,-99.9,30.06,WNW,303,6.0,7.0,-999,-99.99,,,-99.99,,2013-03-04 15:02:00,
2013-03-04 11:11:00,81.0,-99.9,30.06,NW,320,4.0,5.0,-999,-99.99,,,-99.99,,2013-03-04 15:11:00,
2013-03-04 11:22:00,81.0,-99.9,30.06,NW,307,6.0,8.0,-999,-99.99,,,-99.99,,2013-03-04 15:22:00,
2013-03-04 11:32:00,81.0,-99.9,30.05,NW,311,6.0,9.0,-999,-99.99,,,-99.99,,2013-03-04 15:32:00,
2013-03-04 11:42:00,81.0,-99.9,30.05,NW,306,7.0,9.0,-999,-99.99,,,-99.99,,2013-03-04 15:42:00,
2013-03-04 11:52:00,81.0,-99.9,30.04,WNW,301,7.0,9.0,-999,-99.99,,,-99.99,,2013-03-04 15:52:00,
2013-03-04 12:03:00,81.0,-99.9,30.04,NW,307,6.0,9.0,-999,-99.99,,,-99.99,,2013-03-04 16:03:00,
2013-03-04 12:11:00,83.0,-99.9,30.04,NNW,345,3.0,9.0,-999,-99.99,,,-99.99,,2013-03-04 16:11:00,
2013-03-04 12:22:00,83.0,-99.9,30.03,NNW,339,4.0,8.0,-999,-99.99,,,-99.99,,2013-03-04 16:22:00,
2013-03-04 12:32:00,83.0,-99.9,30.03,NW,320,4.0,9.0,-999,-99.99,,,-99.99,,2013-03-04 16:32:00,
2013-03-04 12:42:00,83.0,-99.9,30.02,North,7,5.0,11.0,-999,-99.99,,,-99.99,,2013-03-04 16:42:00,
2013-03-04 12:52:00,84.0,-99.9,30.02,NW,322,4.0,6.0,-999,-99.99,,,-99.99,,2013-03-04 16:52:00,
2013-03-04 13:02:00,83.0,-99.9,30.02,NW,310,5.0,9.0,-999,-99.99,,,-99.99,,2013-03-04 17:02:00,
2013-03-04 13:11:00,83.0,-99.9,30.01,NW,323,5.0,10.0,-999,-99.99,,,-99.99,,2013-03-04 17:11:00,
2013-03-04 13:22:00,84.0,-99.9,30.01,NW,317,4.0,11.0,-999,-99.99,,,-99.99,,2013-03-04 17:22:00,
2013-03-04 13:32:00,83.0,-99.9,30.01,NW,312,6.0,10.0,-999,-99.99,,,-99.99,,2013-03-04 17:32:00,
2013-03-04 13:42:00,84.0,-99.9,30.00,North,7,5.0,9.0,-999,-99.99,,,-99.99,,2013-03-04 17:42:00,
2013-03-04 13:52:00,85.0,-99.9,30.00,NNW,336,3.0,12.0,-999,-99.99,,,-99.99,,2013-03-04 17:52:00,
2013-03-04 14:02:00,84.0,-99.9,30.00,NNW,347,5.0,9.0,-999,-99.99,,,-99.99,,2013-03-04 18:02:00,
2013-03-04 14:11:00,83.0,-99.9,29.99,NW,322,6.0,9.0,-999,-99.99,,,-99.99,,2013-03-04 18:11:00,
2013-03-04 14:22:00,83.0,-99.9,29.99,NW,314,5.0,9.0,-999,-99.99,,,-99.99,,2013-03-04 18:22:00,
2013-03-04 14:32:00,83.0,-99.9,29.99,NW,325,6.0,11.0,-999,-99.99,,,-99.99,,2013-03-04 18:32:00,
2013-03-04 14:43:00,83.0,-99.9,29.98,NNW,340,3.0,12.0,-999,-99.99,,,-99.99,,2013-03-04 18:43:00,
2013-03-04 14:52:00,82.0,-99.9,29.98,NW,306,7.0,12.0,-999,-99.99,,,-99.99,,2013-03-04 18:52:00,
2013-03-04 15:02:00,83.0,-99.9,29.97,NW,318,4.0,8.0,-999,-99.99,,,-99.99,,2013-03-04 19:02:00,
2013-03-04 15:12:00,83.0,-99.9,29.97,NW,322,4.0,8.0,-999,-99.99,,,-99.99,,2013-03-04 19:12:00,
2013-03-04 15:22:00,82.0,-99.9,29.97,NW,312,6.0,10.0,-999,-99.99,,,-99.99,,2013-03-04 19:22:00,
2013-03-04 15:32:00,81.0,-99.9,29.97,NW,309,8.0,12.0,-999,-99.99,,,-99.99,,2013-03-04 19:32:00,
2013-03-04 15:42:00,81.0,-99.9,29.97,NW,313,4.0,10.0,-999,-99.99,,,-99.99,,2013-03-04 19:42:00,
2013-03-04 15:52:00,82.0,-99.9,29.96,NW,324,3.0,8.0,-999,-99.99,,,-99.99,,2013-03-04 19:52:00,
2013-03-04 16:02:00,82.0,-99.9,29.96,NNW,339,4.0,10.0,-999,-99.99,,,-99.99,,2013-03-04 20:02:00,
2013-03-04 16:12:00,81.0,-99.9,29.97,North,350,3.0,7.0,-999,-99.99,,,-99.99,,2013-03-04 20:12:00,
2013-03-04 16:22:00,80.0,-99.9,29.97,NNW,331,3.0,7.0,-999,-99.99,,,-99.99,,2013-03-04 20:22:00,
2013-03-04 16:33:00,80.0,-99.9,29.97,NNW,333,2.0,8.0,-999,-99.99,,,-99.99,,2013-03-04 20:33:00,
2013-03-04 16:42:00,80.0,-99.9,29.97,NNW,330,4.0,8.0,-999,-99.99,,,-99.99,,2013-03-04 20:42:00,
2013-03-04 16:53:00,80.0,-99.9,29.97,NNW,337,2.0,5.0,-999,-99.99,,,-99.99,,2013-03-04 20:53:00,
2013-03-04 17:02:00,80.0,-99.9,29.97,NW,324,4.0,7.0,-999,-99.99,,,-99.99,,2013-03-04 21:02:00,
2013-03-04 17:12:00,80.0,-99.9,29.97,NNW,332,3.0,6.0,-999,-99.99,,,-99.99,,2013-03-04 21:12:00,
2013-03-04 17:22:00,80.0,-99.9,29.97,NNW,339,4.0,6.0,-999,-99.99,,,-99.99,,2013-03-04 21:22:00,
2013-03-04 17:32:00,80.0,-99.9,29.97,NW,326,4.0,10.0,-999,-99.99,,,-99.99,,2013-03-04 21:32:00,
2013-03-04 17:43:00,80.0,-99.9,29.97,North,358,2.0,7.0,-999,-99.99,,,-99.99,,2013-03-04 21:43:00,
2013-03-04 17:53:00,79.0,-99.9,29.97,NW,325,3.0,6.0,-999,-99.99,,,-99.99,,2013-03-04 21:53:00,
2013-03-04 18:02:00,80.0,-99.9,29.97,North,6,6.0,10.0,-999,-99.99,,,-99.99,,2013-03-04 22:02:00,
2013-03-04 18:12:00,79.0,-99.9,29.97,NNE,15,9.0,15.0,-999,-99.99,,,-99.99,,2013-03-04 22:12:00,
2013-03-04 18:22:00,79.0,-99.9,29.98,NNE,12,11.0,19.0,-999,-99.99,,,-99.99,,2013-03-04 22:22:00,
2013-03-04 18:32:00,79.0,-99.9,29.98,North,1,9.0,17.0,-999,-99.99,,,-99.99,,2013-03-04 22:32:00,
2013-03-04 18:43:00,78.0,-99.9,29.98,North,1,9.0,17.0,-999,-99.99,,,-99.99,,2013-03-04 22:43:00,
2013-03-04 18:52:00,77.0,-99.9,29.99,North,11,8.0,16.0,-999,-99.99,,,-99.99,,2013-03-04 22:52:00,
2013-03-04 19:02:00,77.0,-99.9,29.99,NNE,15,10.0,16.0,-999,-99.99,,,-99.99,,2013-03-04 23:02:00,
2013-03-04 19:11:00,77.0,-99.9,29.99,North,359,8.0,16.0,-999,-99.99,,,-99.99,,2013-03-04 23:11:00,
2013-03-04 19:22:00,77.0,-99.9,29.99,North,11,8.0,18.0,-999,-99.99,,,-99.99,,2013-03-04 23:22:00,
2013-03-04 19:32:00,76.0,-99.9,30.00,NNE,14,8.0,16.0,-999,-99.99,,,-99.99,,2013-03-04 23:32:00,
2013-03-04 19:42:00,76.0,-99.9,30.00,North,11,11.0,18.0,-999,-99.99,,,-99.99,,2013-03-04 23:42:00,
2013-03-04 19:52:00,76.0,-99.9,30.01,North,6,8.0,12.0,-999,-99.99,,,-99.99,,2013-03-04 23:52:00,
2013-03-04 20:02:00,77.0,-99.9,30.01,NNE,13,9.0,14.0,-999,-99.99,,,-99.99,,2013-03-05 00:02:00,
2013-03-04 20:12:00,77.0,-99.9,30.01,North,5,8.0,14.0,-999,-99.99,,,-99.99,,2013-03-05 00:12:00,
2013-03-04 20:22:00,77.0,-99.9,30.02,NNE,16,10.0,19.0,-999,-99.99,,,-99.99,,2013-03-05 00:22:00,
2013-03-04 20:33:00,77.0,-99.9,30.02,North,6,8.0,13.0,-999,-99.99,,,-99.99,,2013-03-05 00:33:00,
2013-03-04 20:42:00,78.0,-99.9,30.03,North,10,9.0,16.0,-999,-99.99,,,-99.99,,2013-03-05 00:42:00,
2013-03-04 20:52:00,78.0,-99.9,30.03,North,11,7.0,14.0,-999,-99.99,,,-99.99,,2013-03-05 00:52:00,
2013-03-04 21:02:00,78.0,-99.9,30.04,NNE,23,9.0,15.0,-999,-99.99,,,-99.99,,2013-03-05 01:02:00,
2013-03-04 21:12:00,78.0,-99.9,30.04,North,4,5.0,14.0,-999,-99.99,,,-99.99,,2013-03-05 01:12:00,
2013-03-04 21:22:00,78.0,-99.9,30.04,NNE,19,7.0,15.0,-999,-99.99,,,-99.99,,2013-03-05 01:22:00,
2013-03-04 21:33:00,78.0,-99.9,30.04,NNE,12,8.0,14.0,-999,-99.99,,,-99.99,,2013-03-05 01:33:00,
2013-03-04 21:42:00,77.0,-99.9,30.04,NNE,20,6.0,11.0,-999,-99.99,,,-99.99,,2013-03-05 01:42:00,
2013-03-04 21:52:00,78.0,-99.9,30.05,NNE,22,3.0,16.0,-999,-99.99,,,-99.99,,2013-03-05 01:52:00,
2013-03-04 22:02:00,78.0,-99.9,30.05,NNE,13,7.0,13.0,-999,-99.99,,,-99.99,,2013-03-05 02:02:00,
2013-03-04 22:12:00,78.0,-99.9,30.05,NNE,32,3.0,8.0,-999,-99.99,,,-99.99,,2013-03-05 02:12:00,
2013-03-04 22:22:00,77.0,-99.9,30.05,SSW,211,7.0,11.0,-999,-99.99,,,-99.99,,2013-03-05 02:22:00,
2013-03-04 22:33:00,74.0,-99.9,30.05,SW,231,12.0,16.0,-999,-99.99,,,-99.99,,2013-03-05 02:33:00,
2013-03-04 22:42:00,74.0,-99.9,30.06,SW,220,9.0,11.0,-999,-99.99,,,-99.99,,2013-03-05 02:42:00,
2013-03-04 22:53:00,74.0,-99.9,30.06,WNW,294,2.0,7.0,-999,-99.99,,,-99.99,,2013-03-05 02:53:00,
2013-03-04 23:02:00,75.0,-99.9,30.06,NW,317,2.0,11.0,-999,-99.99,,,-99.99,,2013-03-05 03:02:00,
2013-03-04 23:12:00,76.0,-99.9,30.06,North,351,4.0,7.0,-999,-99.99,,,-99.99,,2013-03-05 03:12:00,
2013-03-04 23:22:00,77.0,-99.9,30.05,NNE,16,3.0,7.0,-999,-99.99,,,-99.99,,2013-03-05 03:22:00,
2013-03-04 23:32:00,78.0,-99.9,30.05,NE,40,2.0,8.0,-999,-99.99,,,-99.99,,2013-03-05 03:32:00,
2013-03-04 23:42:00,78.0,-99.9,30.05,NE,48,6.0,9.0,-999,-99.99,,,-99.99,,2013-03-05 03:42:00,
2013-03-04 23:52:00,78.0,-99.9,30.05,NNE,16,4.0,9.0,-999,-99.99,,,-99.99,,2013-03-05 03:52:00,